Weather in Buinsk

Russia / Republic of Tatarstan     54°57′50″N   48°17′24″E
temp.,
°C
wind,
m/s
gust,
m/s
humid.,
%
clouds,
%
prec.,
mm/h
press.,
hPa
HPBL,
m
21 april, wed
wed2100:00+5se81542100 0.0 1025727
03:00+4se91845100 0.0 1023711
06:00+4se91850100 0.1 1022857
09:00+3se102061100 0.9 1022830
12:00+3sse101873100 0.2 1022842
15:00+3sse111978100 1.9 1021804
18:00+2sse101892100 3.1 1021710
21:00+2sse91794100 3.3 1021666
22 april, thu
thu2200:00+3sse71496100 0.2 1020549
03:00+4s61196100 0.2 1022293
06:00+4sse51096100 0.1 1023244
09:00+5sse6119268 0.1 1023413
12:00+9s71080100 0.0 1023823
15:00+12sse7106856 0.1 1023793
18:00+9sse7127798 0.5 1023492
21:00+7sse613855 0.5 1024342
23 april, fri
fri2300:00+5sse5109178 0.0 1024240
03:00+4sse489625 0.0 1025179
06:00+4sse479415 0.0 1025205
09:00+9sse56769 0.0 1025473
12:00+11sse456649 0.0 1024645
15:00+13se34595 0.0 1023760
18:00+12ese45687 0.0 1023342
21:00+9ese387876 0.0 1022276
24 april, sat
sat2400:00+7e3587100 0.0 1020131
03:00+5ene3592100 0.0 1019138
06:00+5ene3691100 0.0 1017210
09:00+8se4584100 0.0 1016581
12:00+10se4474100 0.1 1014826
15:00+10ese4474100 0.1 1013738
18:00+9ese457354 0.0 1012669
21:00+7se5108771 0.0 1010348
25 april, sun
sun2500:00+7sse61487100 0.0 1008404
03:00+6wsw61083100 3.0 1009896
06:00+5w6971100 0.0 10101146
09:00+8wsw69565 0.0 10111404
12:00+11sw6839100 0.0 10112705
15:00+11ssw6642100 0.0 10111857
18:00+7s6872100 0.3 1012627
21:00+5s510835 0.4 1014319